Вернуться в каталог

NAVSTAR 66

USA 232

АктивенНавигацияHEO
NORAD 37753·PAYLOAD·🇺🇸 United States

Запущен Jul 16, 2011 с Cape Canaveral Space Force Station

Loading…

Ближайшие Пролёты (ближайшие 24 часа)

TLE

СвежийSource: Space-Track

Эпоха: Sep 14, 2026, 15:39 UTC

1 37753U 11036A   26257.65244256 -.00000096  00000-0  00000-0 0  9998
2 37753  56.5163 328.5364 0140651  63.0631 326.2604  2.00561223111074

Отслеживайте NAVSTAR 66 в реальном времени с AllMySat

Download on the App Store